STARLINK-11146, 60729

Orbit data source: Space-Track

STARLINK-11146, 60729 is a payload satellite owned by SpaceX/Seattle (US) in LEO that was launched on Wed, 28 Aug 2024 UTC via an FALCON 9 launch vehicle from the Air Force Eastern Test Range (AFETR). Payload-class satellites include a variety of spacecraft equipped with specific instruments for various scientific and technological missions. These include communications satellites like Starlink; space stations such as the ISS; scientific satellites like the Hubble; Earth observation satellites from companies like Planet Labs, Umbra, and HawkEye 360; GPS; miniature CubeSats for education and research; and military/defense satellites.

Loading next visibility...
Identifier
60729, 2024-152K
Orbit
LEO
Last TLE update
16 hours ago
Origin
Manufacturer
SpaceX/Seattle
Mission
Operational Commercial Communications
Bus & Motor
STARLINK V2M, Unknown motor
Mass
730 kg wet, ~700 kg dry
Launch date (UTC)
2024-08-28 (10 months ago)
Launch vehicle
FALCON 9
Launch site
Air Force Eastern Test Range (AFETR)
Object type
Payload
Rocket body
Debris
Shape & HBR
Box + 2 Pan, 29 m
Radar Cross Section
36.964 m², Large (>1 m²)

Expand to show TLE details & history

TLE from 16 hours ago
0 STARLINK-11146
1 60729U 24152K   25181.59699579  .00000393  00000-0  80982-5 0  9991
2 60729  53.1589 278.7778 0001001  70.5088 289.6038 15.69710565 49377
Epoch: 2025-06-30T14:19Z
TLE epoch observation values (Epoch: 2025-06-30T14:19:40.436Z)
Latitude
-0.00001°
Longitude
144.95479°
Altitude
360.414 km
Speed
7.694 km/s
True Right ascension
18h 35m 06s
True Declination
0° 00' 00"
Sunlit
Object was in full shadow at epoch
Visualization orbit readout
Latitude
47.89734°
Longitude
-162.71162°
Altitude
364.375 km
Speed
7.697 km/s
Apparent Right ascension
02h 01m 11s
Apparent Declination
9° 43' 58"
Sunlit
Object is in daylight
Visualization observer readout
Local Sidereal Time
17:31:24
Azimuth
56.692° ENE
Elevation
-20.557°
Doppler factor
1
Orbital elements
Apogee altitude
360.66 km
Perigee altitude
359.312 km
Semi-major axis
6,738.123 km
Eccentricity
0.0001
Inclination
53.1589°
RAAN
278.7778°
Arg. of periapsis
70.5088°
True anomaly
Unknown
Mean anomaly
289.6038°
Eccentric anomaly
Unknown
Mean motion
3.92405 °/min
Orbital period
91.74 mins
BSTAR
0.0000080982
Loading maneuver chart data...
Loading SW <> Apogee altitude chart data...
Loading historical data...
Loading historical data...
Loading historical data...
Loading historical data...
Loading historical data...
Loading historical data...
Loading historical data...

STARLINK-11146 Visibility forecast

Observer location: undefined°, undefined°

Span
Click to sort rows by Start time (UTC) header in descending order
Start Az.
Max El. time (UTC)
Max El. Az.
Max El.
End time (UTC)
End Az.
4 mins2025-07-01 08:50:42.658Z202.192° SSW2025-07-01 08:52:42.658Z123.678° SE34.879°2025-07-01 08:54:42.658Z65.828° ENE
4 mins2025-07-01 15:15:42.658Z343.76° N2025-07-01 15:16:42.658Z13.285° NNE25.968°2025-07-01 15:19:42.658Z97.14° ESE
|